Theta_e
351 359 363 365 364 363 363 363 361 361 361 362 362 362 361 361 361 359 360 361 362 362 360 359 357 358 358 357 356 356 356 355 353 354 353 352 351 350 349 349 349 345 347
354 360 363 365 364 363 363 362 361 360 360 360 360 360 359 359 359 359 360 361 361 360 359 358 356 356 356 356 355 354 354 354 355 354 353 353 353 352 351 348 347 347 348
356 360 362 365 364 362 362 361 360 360 360 359 359 358 358 358 360 360 361 361 361 359 358 356 355 354 353 354 354 354 354 353 354 354 353 349 350 351 353 349 350 350 348
358 360 361 365 364 362 361 360 359 359 358 358 357 358 358 359 359 360 361 361 360 358 357 356 354 353 352 353 354 353 353 353 352 350 345 345 346 351 350 351 350 349 348
357 359 361 364 363 362 361 359 359 358 357 357 357 357 358 358 359 360 361 360 358 357 357 356 354 353 353 353 353 353 353 353 353 351 348 348 346 346 353 350 349 348 348
356 359 361 362 362 361 361 360 358 358 359 357 357 357 358 359 360 360 360 359 358 356 356 354 353 353 353 353 352 352 353 352 350 346 348 349 349 351 352 353 351 350 351
355 359 360 363 362 361 361 360 358 358 358 358 357 357 357 358 359 359 359 359 357 356 355 354 353 352 351 351 351 350 350 352 350 349 348 348 346 347 350 356 354 353 352
355 358 359 362 361 361 360 359 358 357 358 358 357 357 357 358 358 359 358 358 357 356 354 353 352 351 351 351 350 350 351 352 350 347 347 346 346 351 352 358 355 355 354
357 356 357 358 359 361 359 358 357 357 357 358 357 357 357 357 357 357 357 357 357 356 355 353 351 350 351 350 350 351 351 351 348 346 344 343 347 353 354 358 357 356 355
355 354 354 355 356 356 356 359 357 357 357 357 357 357 357 357 357 357 354 355 356 355 354 353 351 350 350 350 349 349 348 347 342 341 341 341 348 349 353 358 358 358 356
352 352 352 352 352 354 355 355 357 357 356 357 357 357 355 352 354 354 353 355 355 355 354 353 352 352 350 349 348 347 347 342 341 341 341 343 348 352 353 356 358 357 355
345 348 349 349 350 352 352 353 352 352 352 351 352 352 350 349 349 352 353 355 355 354 353 353 352 351 348 344 341 339 335 336 338 340 342 352 355 359 358 357 358 355 353
345 347 348 349 351 349 350 351 351 350 350 349 349 347 346 346 348 350 347 349 350 352 348 348 346 345 343 341 339 336 335 337 339 345 347 350 352 355 355 354 352 349 347
344 345 347 348 347 348 350 348 348 346 347 347 348 345 343 342 343 345 344 344 347 347 346 345 344 344 343 342 338 336 337 336 336 339 341 345 347 352 351 350 348 344 340
342 343 346 346 347 347 348 348 347 346 346 347 347 345 342 340 340 341 343 343 345 347 347 344 342 342 341 339 341 340 337 336 336 334 336 340 343 347 342 341 341 339 338
343 343 345 346 348 348 347 346 346 346 347 347 347 345 344 340 338 340 339 341 343 345 346 344 342 342 340 339 339 340 338 338 338 337 335 336 339 341 340 338 339 338 339
343 343 343 345 347 347 347 347 346 347 347 345 346 346 344 341 339 340 340 340 342 344 344 343 340 339 337 334 332 331 331 330 332 334 337 337 338 339 341 340 339 340 343
343 343 344 345 346 345 345 346 345 345 345 344 344 345 344 341 340 341 342 341 344 344 342 339 335 331 330 329 328 327 327 326 326 326 330 328 330 337 338 339 338 339 342
342 343 341 342 341 341 339 341 340 341 341 342 341 343 343 340 341 342 344 342 340 338 337 334 329 330 326 325 324 325 323 322 323 322 325 330 329 334 334 329 329 329 331
341 341 339 339 339 337 337 338 338 338 339 340 340 341 343 342 343 341 340 338 336 335 332 329 327 324 324 322 322 321 321 320 320 322 326 324 325 324 324 324 324 323 328
338 337 336 336 337 338 336 336 336 335 337 339 341 343 344 344 342 339 336 334 333 332 329 327 326 325 322 323 322 323 323 323 326 328 324 320 320 321 322 322 320 320 321
336 336 335 337 338 339 338 337 337 340 340 343 344 343 344 342 340 337 334 332 331 327 326 326 326 323 321 320 320 318 317 321 324 324 322 319 318 318 318 319 320 320 321
335 335 335 337 337 340 341 341 343 343 342 343 343 342 342 342 339 336 334 330 328 327 325 325 324 322 319 324 323 322 317 315 319 322 320 316 317 317 317 318 318 318 321
336 337 337 337 337 338 344 341 340 339 338 341 342 340 340 338 336 335 333 330 327 325 325 326 328 325 324 322 322 319 319 319 316 313 315 313 317 316 317 317 317 317 319
337 337 336 335 334 338 345 343 341 338 340 342 338 336 334 335 335 332 330 327 325 325 324 327 325 323 322 319 318 315 313 312 312 310 308 310 315 316 316 316 316 315 317
337 337 336 332 334 338 343 342 341 340 339 335 333 333 332 331 329 329 328 325 325 326 326 324 322 320 318 317 315 315 314 313 312 311 309 310 309 312 314 314 315 314 316
Wind_Speed
9 14 23 20 18 20 21 22 20 20 20 21 21 20 21 21 20 19 18 16 14 13 12 11 12 11 11 11 11 11 10 11 12 12 11 10 9 8 7 7 8 7 8
15 16 23 19 19 21 21 21 21 20 19 19 19 20 20 19 20 18 17 15 14 13 12 11 11 11 10 10 10 10 10 10 10 11 10 9 8 6 6 6 7 6 7
16 15 16 18 19 21 22 21 19 20 20 19 18 18 19 19 18 18 16 14 13 14 13 12 11 10 10 10 9 9 10 9 8 9 8 4 2 4 7 6 7 7 7
17 15 14 17 17 19 21 21 20 19 19 19 18 18 18 18 17 16 14 13 13 13 12 12 11 10 9 10 9 9 8 9 8 8 3 3 3 4 4 7 9 9 8
14 13 17 18 18 19 20 22 20 20 19 19 18 17 17 17 16 14 14 13 13 12 11 10 9 8 8 7 7 7 7 7 6 6 4 3 3 5 7 8 9 10 10
13 12 20 21 19 19 20 20 21 19 19 18 18 16 16 16 14 13 12 12 12 11 11 10 9 9 8 8 7 7 7 6 5 3 3 4 5 8 11 11 11 11 10
13 13 17 20 19 20 20 20 20 19 18 17 17 16 15 15 14 13 12 12 12 12 11 11 10 9 9 8 8 7 6 5 3 3 3 3 5 10 12 13 12 11 11
15 15 14 18 19 19 19 19 19 18 18 17 16 15 14 13 13 12 11 11 11 10 9 9 9 8 8 8 7 6 5 4 2 3 5 5 8 10 7 12 11 9 11
13 14 14 13 15 19 19 19 18 18 18 17 16 14 13 13 13 11 10 9 9 8 7 7 5 4 2 2 1 1 3 6 5 4 6 5 10 11 9 9 11 13 12
13 13 14 14 13 11 12 18 19 17 17 16 15 15 14 12 11 9 8 7 7 6 5 4 3 1 0 2 3 4 5 6 3 4 3 4 10 11 10 10 13 12 11
11 12 12 12 12 13 11 13 16 19 17 16 14 14 11 5 6 7 6 6 6 4 4 3 2 0 2 4 4 5 4 1 3 3 4 8 9 11 11 9 11 11 8
18 15 12 14 14 13 10 11 10 11 7 6 6 7 4 4 4 5 5 5 4 4 2 1 1 1 2 2 2 4 1 2 2 2 2 7 7 8 8 6 7 5 4
17 12 14 15 14 14 11 9 6 6 6 4 7 6 4 3 3 2 2 1 1 3 1 1 0 1 1 1 2 2 2 2 1 1 3 7 10 11 10 11 9 11 9
18 18 13 14 13 13 10 9 8 8 8 7 6 6 4 2 3 2 2 3 3 1 2 2 0 1 2 2 3 3 1 0 0 2 4 8 9 8 9 11 10 12 11
19 18 15 12 12 11 13 10 9 8 9 8 9 10 8 6 5 4 3 2 3 3 3 2 3 2 3 2 1 1 1 2 3 2 2 9 8 7 7 5 5 4 2
16 18 15 13 12 11 11 11 9 8 8 7 7 7 8 7 6 5 3 2 3 3 3 2 2 2 1 1 0 2 3 3 3 4 3 3 6 2 2 2 1 3 6
18 17 18 17 16 14 13 13 10 8 8 8 7 8 9 8 8 5 3 3 3 3 4 2 2 2 3 2 2 3 3 4 4 4 4 3 3 6 4 6 8 11 12
14 18 17 13 13 12 10 9 7 7 7 6 6 6 8 7 7 5 3 3 3 2 2 3 2 3 2 2 1 2 3 4 5 4 3 3 3 2 6 12 11 12 13
16 17 16 14 13 11 7 5 4 5 5 6 5 6 8 6 6 5 3 3 4 3 3 3 2 2 1 1 2 3 3 3 4 3 4 5 5 5 4 8 14 15 16
13 12 13 10 11 8 6 5 4 3 3 3 4 4 6 4 6 5 3 2 4 4 4 2 2 1 2 2 2 3 3 2 2 1 5 6 6 6 6 7 7 8 16
12 13 14 13 12 10 8 8 5 7 4 3 3 6 5 6 6 6 4 4 3 4 3 2 2 3 3 3 2 2 1 2 4 4 5 5 6 6 6 5 5 5 6
18 16 14 14 13 12 8 6 4 5 3 2 4 5 6 6 7 5 6 5 5 4 4 2 3 2 2 4 3 2 3 2 2 3 4 5 5 4 7 7 6 8 7
15 17 17 18 16 12 11 6 4 6 5 3 3 5 5 7 7 7 6 5 5 4 4 3 2 3 3 4 4 2 1 1 3 1 2 2 5 4 5 6 6 8 6
16 15 15 13 14 10 13 11 11 9 7 3 4 4 5 8 8 8 5 6 6 5 5 3 2 3 3 3 2 3 4 1 1 4 2 2 5 4 5 5 4 6 4
16 16 14 12 12 12 13 13 9 6 5 6 7 9 10 8 6 8 6 7 7 5 4 4 4 5 3 3 1 1 2 3 2 0 4 4 4 4 3 3 4 5 3
13 12 12 12 11 12 13 12 12 13 11 9 9 8 8 6 5 7 7 7 6 6 6 5 5 6 5 5 3 3 2 1 2 1 3 4 6 3 6 3 3 4 3
Wind_Direction
177 152 155 150 147 130 125 121 119 118 117 119 121 122 121 124 127 131 133 133 131 128 123 112 106 106 104 105 103 104 109 118 122 122 120 118 124 133 138 133 131 144 142
143 150 155 150 144 131 127 125 124 123 121 122 124 123 124 127 130 132 133 130 128 125 120 115 111 109 108 106 106 109 112 115 123 127 124 130 138 156 147 144 149 157 147
141 146 150 150 140 134 129 126 126 127 126 127 126 127 128 129 131 133 132 130 130 129 125 118 113 112 113 113 115 116 118 120 123 127 119 117 150 167 181 153 161 167 163
135 143 146 145 138 134 130 128 129 127 126 128 128 128 127 127 130 129 125 123 125 125 123 119 118 120 121 124 123 121 123 127 130 129 132 166 216 174 163 184 185 185 177
131 138 150 145 141 136 133 131 131 130 128 128 127 128 128 129 129 126 123 123 123 120 117 115 114 113 110 112 119 125 134 142 151 151 173 209 233 227 213 204 206 202 196
133 141 154 149 143 138 135 133 132 131 130 129 126 127 126 124 122 122 122 123 124 124 124 126 129 130 132 135 138 143 150 157 155 190 223 243 251 251 236 220 216 223 218
139 147 155 148 144 140 138 135 131 132 130 129 129 131 132 130 127 128 131 135 141 145 148 149 150 148 147 150 157 163 174 178 182 237 276 296 287 275 245 218 215 224 234
144 151 152 147 145 140 137 136 134 135 132 133 133 134 135 131 131 138 144 148 152 155 157 158 159 160 160 165 173 183 190 214 244 292 318 311 310 328 258 225 220 230 243
139 147 153 150 147 140 139 137 135 135 136 136 135 138 138 140 144 147 152 153 155 162 168 165 163 164 176 184 188 280 317 329 354 343 331 332 324 331 312 249 225 224 232
140 150 156 153 148 135 140 137 137 139 137 137 141 144 148 148 148 152 160 166 164 167 170 165 159 148 21 345 349 356 341 12 346 316 296 290 296 303 295 269 245 239 240
145 154 154 153 151 147 136 141 136 139 140 143 147 151 148 155 157 167 170 182 176 171 180 172 177 289 347 3 10 4 16 329 318 309 305 298 293 292 279 271 241 249 258
166 161 161 159 157 147 145 141 140 142 140 140 145 152 153 145 149 160 179 195 187 190 199 201 323 6 2 342 355 352 328 294 293 315 326 331 331 330 304 273 238 238 246
163 162 169 160 157 153 153 146 144 139 140 145 151 146 152 144 174 161 166 146 140 194 177 195 197 145 211 277 296 284 309 322 37 51 22 13 3 18 51 64 77 52 20
169 171 163 166 162 157 154 156 151 148 160 164 165 152 146 149 156 206 204 170 174 222 196 201 176 277 263 268 263 268 185 115 353 329 340 347 12 28 57 62 64 49 28
171 173 171 168 166 162 161 158 159 159 167 172 170 173 162 166 183 176 210 178 188 187 230 205 208 212 239 262 319 154 56 348 350 5 339 347 8 30 54 74 77 73 13
170 176 170 172 169 165 168 164 163 167 169 168 171 179 177 175 167 188 181 202 196 197 219 206 225 220 226 237 88 5 348 340 336 339 328 328 356 334 352 19 359 268 268
180 168 178 175 178 174 176 172 170 170 164 164 174 183 181 190 160 169 162 202 215 204 218 175 64 55 101 90 53 2 335 327 334 338 338 340 326 329 306 305 320 297 296
166 176 173 175 177 177 175 181 170 164 161 167 175 178 190 181 160 159 157 216 194 175 151 106 98 86 78 54 340 314 315 319 321 343 353 343 322 334 8 350 354 354 334
176 170 169 177 175 167 159 159 139 140 150 169 172 169 181 175 158 134 163 199 150 121 116 119 84 103 101 44 309 308 319 326 349 351 5 29 37 31 13 17 18 8 356
169 167 168 174 167 153 134 119 116 126 127 153 164 162 164 143 136 134 129 159 101 105 96 95 113 69 73 27 313 325 316 343 350 49 70 51 39 38 22 16 12 3 5
163 164 173 168 167 160 162 163 171 181 147 177 150 154 149 133 144 142 114 111 113 103 127 138 97 60 40 18 4 357 21 48 87 85 79 47 41 29 28 22 16 19 3
172 175 173 178 174 177 173 167 148 140 134 146 134 124 143 153 116 109 135 123 110 101 117 100 75 113 72 23 69 32 358 342 44 59 89 49 26 13 19 20 29 20 11
178 181 181 181 178 175 163 142 114 95 95 119 130 142 166 138 120 114 124 119 112 131 117 90 96 90 107 45 48 101 357 298 310 50 67 46 12 20 13 10 5 11 18
192 188 187 178 175 167 160 168 167 171 158 148 124 129 111 106 111 119 136 124 129 113 100 104 115 97 104 91 43 30 49 10 323 322 352 331 347 356 343 353 341 351 5
190 190 183 164 167 170 171 170 163 133 123 125 120 115 107 96 124 112 128 121 110 105 114 117 93 76 72 102 92 60 50 43 59 47 295 318 322 313 308 314 306 347 354
195 186 174 160 165 171 171 164 163 145 144 130 140 125 111 112 107 114 117 106 103 111 107 103 90 84 88 94 103 90 81 41 355 334 285 300 307 308 299 265 289 336 339